KE6AFE Weather Reports


Display with metric or nautical units.
time (UTC)temp
F
wind
direction
speed
MPH
gust
MPH
rain 1hr
in
rain 24hr
in
rain mn
in
humidity
%
barometer
mb
20260505001540 69 1 0.0 0.0 0.00 0.00 0.00 44 1016.0
20260505000530 69 1 0.0 0.0 0.00 0.00 0.00 45 1015.9
20260504235520 70 1 0.0 0.0 0.00 0.00 0.00 45 1015.8
20260504234510 70 1 0.0 0.0 0.00 0.00 0.00 45 1015.9
20260504233500 70 2 0.0 0.0 0.00 0.00 0.00 42 1015.9
20260504232450 70 1 0.0 0.0 0.00 0.00 0.00 44 1016.0
20260504231440 70 1 0.0 0.0 0.00 0.00 0.00 46 1016.0
20260504230430 70 1 0.0 0.0 0.00 0.00 0.00 46 1016.0
20260504225420 70 1 0.0 0.0 0.00 0.00 0.00 47 1016.0
20260504224410 71 1 0.0 0.0 0.00 0.00 0.00 46 1016.1
20260504223400 71 2 0.0 0.0 0.00 0.00 0.00 47 1016.2
20260504222350 71 1 0.0 0.0 0.00 0.00 0.00 46 1016.1
20260504221340 71 1 0.0 0.0 0.00 0.00 0.00 46 1016.3
20260504220330 71 1 0.0 0.0 0.00 0.00 0.00 46 1016.3
20260504215320 71 1 0.0 0.0 0.00 0.00 0.00 47 1016.5
20260504214310 71 1 0.0 0.0 0.00 0.00 0.00 48 1016.4
20260504213300 70 1 0.0 0.0 0.00 0.00 0.00 48 1016.5
20260504212249 70 1 0.0 0.0 0.00 0.00 0.00 48 1016.7
20260504211240 70 1 0.0 0.0 0.00 0.00 0.00 49 1016.7
20260504210229 70 1 0.0 0.0 0.00 0.00 0.00 51 1016.8
20260504205220 70 1 0.0 0.0 0.00 0.00 0.00 52 1016.7
20260504204210 69 2 0.0 0.0 0.00 0.00 0.00 52 1016.7
20260504203158 69 1 0.0 0.0 0.00 0.00 0.00 53 1016.7
20260504202148 69 1 0.0 0.0 0.00 0.00 0.00 53 1016.7
20260504201138 68 1 0.0 0.0 0.00 0.00 0.00 54 1016.8
20260504200128 68 1 0.0 0.0 0.00 0.00 0.00 53 1016.8
20260504195118 68 1 0.0 0.0 0.00 0.00 0.00 53 1016.7
20260504194108 68 1 0.0 0.0 0.00 0.00 0.00 55 1016.7
20260504193058 68 1 0.0 0.0 0.00 0.00 0.00 55 1016.7
20260504192048 68 1 0.0 0.0 0.00 0.00 0.00 55 1016.6
20260504191038 67 1 0.0 0.0 0.00 0.00 0.00 57 1016.7
20260504190028 67 1 0.0 0.0 0.00 0.00 0.00 58 1016.6
20260504185018 66 1 0.0 0.0 0.00 0.00 0.00 58 1016.7
20260504184008 65 1 0.0 0.0 0.00 0.00 0.00 59 1016.6
20260504182958 65 1 0.0 0.0 0.00 0.00 0.00 60 1016.5
20260504181948 64 1 0.0 0.0 0.00 0.00 0.00 62 1016.5
20260504180938 63 1 0.0 0.0 0.00 0.00 0.00 63 1016.4
20260504175929 63 1 0.0 0.0 0.00 0.00 0.00 63 1016.4
20260504174918 62 1 0.0 0.0 0.00 0.00 0.00 64 1016.1
20260504173908 62 1 0.0 0.0 0.00 0.00 0.00 66 1016.0
20260504172858 61 1 0.0 0.0 0.00 0.00 0.00 66 1015.9
20260504171848 61 1 0.0 0.0 0.00 0.00 0.00 66 1015.9
20260504170838 61 1 0.0 0.0 0.00 0.00 0.00 67 1015.8
20260504150638 53 2 0.0 0.0 0.00 0.01 0.00 73 1015.6
20260504140538 48 2 0.0 0.0 0.00 0.01 0.00 79 1015.5
20260504130438 48 2 0.0 0.0 0.00 0.01 0.00 78 1015.0
20260504110238 48 2 0.0 0.0 0.00 0.01 0.00 78 1015.0
20260504100138 48 2 0.0 0.0 0.00 0.01 0.00 76 1014.9
20260504081958 50 2 0.0 0.0 0.00 0.01 0.00 74 1015.7
20260504080948 50 2 0.0 0.0 0.00 0.01 0.00 74 1015.7
20260504050648 55 2 0.0 0.0 0.00 0.01 0.01 68 1015.6
20260504045638 55 1 0.0 0.0 0.00 0.01 0.01 68 1015.6
20260504044628 55 2 0.0 0.0 0.00 0.01 0.01 67 1015.6
20260504043618 56 2 0.0 0.0 0.00 0.01 0.01 67 1015.5
20260504042608 56 1 0.0 0.0 0.00 0.01 0.01 66 1015.4
20260504041558 57 1 0.0 0.0 0.00 0.01 0.01 65 1015.2
20260504040548 57 1 0.0 0.0 0.00 0.01 0.01 65 1015.1
20260504035538 57 1 0.0 0.0 0.00 0.01 0.01 65 1015.0
20260504034528 58 2 0.0 0.0 0.00 0.01 0.01 65 1015.0
20260504033518 58 1 0.0 0.0 0.00 0.01 0.01 64 1014.9
20260504032508 58 1 0.0 0.0 0.00 0.01 0.01 64 1014.8
20260504031458 58 1 0.0 0.0 0.00 0.01 0.01 64 1014.9
20260504030448 59 1 0.0 0.0 0.00 0.01 0.01 62 1014.8
20260504025438 59 1 0.0 0.0 0.00 0.01 0.01 61 1014.6
20260504024428 60 1 0.0 0.0 0.00 0.01 0.01 60 1014.5
20260504023418 60 1 0.0 0.0 0.00 0.01 0.01 59 1014.5
20260504022408 61 1 0.0 0.0 0.00 0.01 0.01 57 1014.4
20260504021358 61 2 0.0 0.0 0.00 0.01 0.01 58 1014.4
20260504020348 61 2 0.0 0.0 0.00 0.01 0.01 58 1014.6
20260504015338 62 1 0.0 0.0 0.00 0.01 0.01 57 1014.7
20260504014328 62 1 0.0 0.0 0.00 0.01 0.01 57 1014.7
20260504013318 63 2 0.0 0.0 0.00 0.01 0.01 55 1014.7
20260504012308 63 1 0.0 0.0 0.00 0.01 0.01 53 1014.6
20260504011258 64 1 0.0 0.0 0.00 0.01 0.01 54 1014.7
20260504010248 64 2 0.0 0.0 0.00 0.01 0.01 53 1014.6
20260504005238 65 1 0.0 0.0 0.00 0.01 0.01 53 1014.6
20260504004228 65 1 0.0 0.0 0.00 0.01 0.01 51 1014.6
20260504003218 66 1 0.0 0.0 0.00 0.01 0.01 50 1014.5
20260504002208 66 1 0.0 0.0 0.00 0.01 0.01 50 1014.5